When you browse on this site, cookies collect data to enhance your experience and personalize the content and advertising you see.
Visit our Privacy Policy to learn more. By continuing to use the site, you agree to this use of cookies and data.
  • In Hungary
  • List of Countries
  • For 7 days
  • Water Temperature
  • Weather Map
  • News
  • Weather Widgets
  • user-avatar
    Login

    Hourly Weather Yasnyy

    Today, 14 November, Thursday

    Time Temperature Precipitation Wind Pressure Humidity
    00:00 -2°C° 0 mm 5 mps 734 mmHg 88%
    01:00 -2°C° 0 mm 4 mps 735 mmHg 88%
    02:00 -2°C° 0 mm 4 mps 735 mmHg 89%
    03:00 -2°C° 0 mm 5 mps 735 mmHg 91%
    04:00 -4°C° 0 mm 5 mps 735 mmHg 93%
    05:00 -4°C° 0 mm 5 mps 736 mmHg 93%
    06:00 -4°C° 0 mm 5 mps 736 mmHg 92%
    07:00 -4°C° 0 mm 6 mps 736 mmHg 91%
    08:00 -4°C° 0.1 mm 6 mps 737 mmHg 86%
    09:00 -4°C° 0.1 mm 6 mps 738 mmHg 82%
    10:00 -4°C° 0.1 mm 7 mps 739 mmHg 77%
    11:00 -6°C° 0 mm 7 mps 739 mmHg 75%
    12:00 -6°C° 0 mm 7 mps 739 mmHg 73%
    13:00 -6°C° 0 mm 7 mps 740 mmHg 72%
    14:00 -7°C° 0 mm 7 mps 740 mmHg 73%
    15:00 -7°C° 0 mm 7 mps 741 mmHg 75%
    16:00 -8°C° 0 mm 7 mps 742 mmHg 76%
    17:00 -9°C° 0 mm 7 mps 742 mmHg 77%
    18:00 -9°C° 0 mm 7 mps 743 mmHg 77%
    19:00 -11°C° 0 mm 7 mps 743 mmHg 78%
    20:00 -10°C° 0 mm 6 mps 744 mmHg 76%
    21:00 -10°C° 0 mm 6 mps 744 mmHg 75%
    22:00 -10°C° 0 mm 6 mps 745 mmHg 73%
    23:00 -10°C° 0 mm 5 mps 745 mmHg 71%

    Tomorrow, 15 November, Friday

    Time Temperature Precipitation Wind Pressure Humidity
    00:00 -11°C° 0 mm 5 mps 745 mmHg 70%
    01:00 -11°C° 0 mm 5 mps 745 mmHg 69%
    02:00 -11°C° 0 mm 5 mps 745 mmHg 69%
    03:00 -10°C° 0 mm 4 mps 746 mmHg 68%
    04:00 -10°C° 0 mm 4 mps 746 mmHg 68%
    05:00 -10°C° 0 mm 4 mps 746 mmHg 68%
    06:00 -10°C° 0 mm 4 mps 746 mmHg 69%
    07:00 -9°C° 0 mm 3 mps 747 mmHg 69%
    08:00 -9°C° 0 mm 3 mps 747 mmHg 65%
    09:00 -7°C° 0 mm 2 mps 747 mmHg 61%
    10:00 -7°C° 0 mm 2 mps 748 mmHg 57%
    11:00 -4°C° 0 mm 1 mps 747 mmHg 53%
    12:00 -3°C° 0 mm 1 mps 747 mmHg 49%
    13:00 -4°C° 0 mm 0 mps 747 mmHg 46%
    14:00 -3°C° 0 mm 1 mps 747 mmHg 47%
    15:00 -3°C° 0 mm 1 mps 747 mmHg 49%
    16:00 -3°C° 0 mm 1 mps 747 mmHg 51%
    17:00 -5°C° 0 mm 2 mps 747 mmHg 53%
    18:00 -5°C° 0 mm 2 mps 747 mmHg 55%
    19:00 -5°C° 0 mm 2 mps 747 mmHg 57%
    20:00 -6°C° 0 mm 3 mps 747 mmHg 57%
    21:00 -6°C° 0 mm 3 mps 747 mmHg 57%
    22:00 -6°C° 0 mm 3 mps 747 mmHg 57%
    23:00 -6°C° 0 mm 3 mps 746 mmHg 59%

    Day after tomorrow, 16 November, Saturday

    Time Temperature Precipitation Wind Pressure Humidity
    00:00 -7°C° 0 mm 4 mps 746 mmHg 61%
    01:00 -7°C° 0 mm 4 mps 746 mmHg 63%
    02:00 -7°C° 0 mm 4 mps 746 mmHg 67%
    03:00 -7°C° 0 mm 4 mps 746 mmHg 70%
    04:00 -7°C° 0 mm 4 mps 746 mmHg 73%
    05:00 -7°C° 0 mm 4 mps 746 mmHg 76%
    06:00 -7°C° 0 mm 4 mps 745 mmHg 79%
    07:00 -8°C° 0 mm 4 mps 745 mmHg 82%
    08:00 -5°C° 0 mm 4 mps 745 mmHg 78%
    09:00 -4°C° 0 mm 4 mps 746 mmHg 74%
    10:00 -3°C° 0 mm 4 mps 746 mmHg 70%
    11:00 -2°C° 0 mm 4 mps 746 mmHg 67%
    12:00 -1°C° 0 mm 4 mps 745 mmHg 64%
    13:00 0°C° 0 mm 4 mps 745 mmHg 60%
    14:00 -1°C° 0 mm 4 mps 745 mmHg 64%
    15:00 -1°C° 0 mm 4 mps 745 mmHg 67%
    16:00 -2°C° 0 mm 4 mps 745 mmHg 71%
    17:00 -2°C° 0 mm 4 mps 745 mmHg 72%
    18:00 -3°C° 0 mm 4 mps 745 mmHg 73%
    19:00 -2°C° 0 mm 3 mps 745 mmHg 74%
    20:00 -2°C° 0 mm 3 mps 745 mmHg 73%
    21:00 -2°C° 0 mm 3 mps 745 mmHg 71%
    22:00 -2°C° 0 mm 3 mps 745 mmHg 70%
    23:00 -2°C° 0 mm 3 mps 745 mmHg 69%

    17 November, Sunday

    Time Temperature Precipitation Wind Pressure Humidity
    00:00 -2°C° 0 mm 3 mps 745 mmHg 69%
    01:00 -2°C° 0 mm 3 mps 744 mmHg 68%
    02:00 -2°C° 0 mm 3 mps 744 mmHg 70%
    03:00 -2°C° 0 mm 3 mps 744 mmHg 72%
    04:00 -2°C° 0 mm 3 mps 744 mmHg 73%
    05:00 -3°C° 0 mm 4 mps 744 mmHg 74%
    06:00 -3°C° 0 mm 4 mps 744 mmHg 75%
    07:00 -3°C° 0 mm 4 mps 744 mmHg 76%
    08:00 -2°C° 0 mm 4 mps 744 mmHg 72%
    09:00 -1°C° 0 mm 4 mps 744 mmHg 67%
    10:00 0°C° 0 mm 5 mps 744 mmHg 63%
    11:00 0°C° 0 mm 5 mps 743 mmHg 61%
    12:00 +1°C° 0 mm 5 mps 743 mmHg 60%
    13:00 +1°C° 0 mm 5 mps 743 mmHg 58%
    14:00 +1°C° 0 mm 5 mps 743 mmHg 61%
    15:00 0°C° 0 mm 5 mps 742 mmHg 64%
    16:00 -1°C° 0 mm 5 mps 742 mmHg 67%
    17:00 -2°C° 0 mm 5 mps 742 mmHg 66%
    18:00 -2°C° 0 mm 5 mps 742 mmHg 66%
    19:00 -4°C° 0 mm 5 mps 742 mmHg 66%
    20:00 -4°C° 0 mm 5 mps 742 mmHg 66%
    21:00 -4°C° 0 mm 6 mps 741 mmHg 66%
    22:00 -4°C° 0 mm 6 mps 741 mmHg 66%
    23:00 -4°C° 0 mm 6 mps 741 mmHg 66%

    18 November, Monday

    Time Temperature Precipitation Wind Pressure Humidity
    00:00 -4°C° 0 mm 6 mps 741 mmHg 66%
    01:00 -4°C° 0 mm 6 mps 740 mmHg 66%
    02:00 -4°C° 0 mm 6 mps 740 mmHg 66%
    03:00 -4°C° 0 mm 6 mps 740 mmHg 66%
    04:00 -4°C° 0 mm 6 mps 740 mmHg 66%
    05:00 -5°C° 0 mm 6 mps 740 mmHg 67%
    06:00 -5°C° 0 mm 6 mps 739 mmHg 68%
    07:00 -5°C° 0 mm 6 mps 739 mmHg 69%
    08:00 -4°C° 0 mm 6 mps 739 mmHg 67%
    09:00 -3°C° 0 mm 6 mps 739 mmHg 64%
    10:00 -3°C° 0 mm 7 mps 738 mmHg 62%
    11:00 -2°C° 0 mm 7 mps 738 mmHg 60%
    12:00 -2°C° 0 mm 7 mps 738 mmHg 59%
    13:00 -1°C° 0 mm 8 mps 737 mmHg 57%
    14:00 -2°C° 0 mm 7 mps 737 mmHg 57%
    15:00 -2°C° 0 mm 7 mps 736 mmHg 57%
    16:00 -2°C° 0 mm 7 mps 736 mmHg 58%
    17:00 -3°C° 0 mm 7 mps 735 mmHg 56%
    18:00 -3°C° 0 mm 7 mps 735 mmHg 55%
    19:00 -3°C° 0 mm 7 mps 735 mmHg 54%
    20:00 -3°C° 0 mm 7 mps 735 mmHg 56%
    21:00 -5°C° 0 mm 8 mps 734 mmHg 59%
    22:00 -5°C° 0 mm 8 mps 734 mmHg 61%
    23:00 -4°C° 0 mm 7 mps 734 mmHg 66%

    19 November, Tuesday

    Time Temperature Precipitation Wind Pressure Humidity
    00:00 -4°C° 0 mm 7 mps 734 mmHg 71%
    01:00 -5°C° 0 mm 6 mps 734 mmHg 76%
    02:00 -5°C° 0 mm 6 mps 734 mmHg 79%
    03:00 -5°C° 0 mm 6 mps 734 mmHg 82%
    04:00 -5°C° 0 mm 5 mps 734 mmHg 86%
    05:00 -5°C° 0 mm 5 mps 734 mmHg 88%
    06:00 -4°C° 0 mm 5 mps 734 mmHg 91%
    07:00 -4°C° 0 mm 5 mps 734 mmHg 94%
    08:00 -2°C° 0 mm 5 mps 734 mmHg 92%
    09:00 -2°C° 0 mm 5 mps 734 mmHg 90%
    10:00 -1°C° 0 mm 5 mps 734 mmHg 88%
    11:00 -1°C° 0 mm 5 mps 734 mmHg 88%
    12:00 -1°C° 0 mm 6 mps 734 mmHg 88%
    13:00 -1°C° 0 mm 6 mps 734 mmHg 87%
    14:00 -2°C° 0 mm 6 mps 733 mmHg 88%
    15:00 -1°C° 0 mm 5 mps 733 mmHg 90%
    16:00 -1°C° 0 mm 5 mps 733 mmHg 91%
    17:00 -1°C° 0 mm 5 mps 732 mmHg 93%
    18:00 -2°C° 0 mm 6 mps 732 mmHg 95%
    19:00 -2°C° 0 mm 7 mps 732 mmHg 96%
    20:00 -3°C° 0 mm 7 mps 732 mmHg 93%
    21:00 -3°C° 0 mm 7 mps 732 mmHg 89%
    22:00 -3°C° 0 mm 6 mps 732 mmHg 85%
    23:00 -6°C° 0 mm 7 mps 733 mmHg 82%
    Show more